Weather History for Lee's Summit, MO

Change the Weather History Date:

Thursday, October 4, 2012

  Actual Average (KMKC) Record (KMKC)
Temperature  
Mean Temperature 56 °F -  
Max Temperature 63 °F 70 °F 89 °F (2013)
Min Temperature 48 °F 50 °F 39 °F (1999)
Degree Days  
Heating Degree Days 10    
Growing Degree Days 6 (Base 50)    
Moisture  
Dew Point 45 °F    
Average Humidity 67    
Maximum Humidity 83    
Minimum Humidity 54    
Precipitation  
Precipitation 0.03 in - - ()
Sea Level Pressure  
Sea Level Pressure 30.16 in    
Wind  
Wind Speed 9 mph (NNW)    
Max Wind Speed 14 mph    
Max Gust Speed 20 mph    
Visibility 10 miles    
Events Rain , Thunderstorm    
Averages and records for this station are not official NWS values.
T = Trace of Precipitation, MM = Missing Value Source: NWS Daily Summary

Daily Weather History Graph

Daily Weather History Graph

Search for Another Location

Airport:

Trip Planner

Search our weather history database for the weather conditions in past years. The results will help you decide how hot, cold, wet, or windy it might be!

Date:

Astronomy

Oct. 04, 2012 Rise Set
Actual Time 7:16 AM CDT 6:54 PM CDT
Civil Twilight 6:50 AM CDT 7:21 PM CDT
Nautical Twilight 6:19 AM CDT 7:52 PM CDT
Astronomical Twilight 5:48 AM CDT 8:23 PM CDT
Moon 9:33 PM CDT (10/4) 11:32 AM CDT (10/4)
Length of Visible Light 12h 31m
Length of Day
11h 37m
Waning Gibbous, 82% of the Moon is Illuminated
Oct 4
Waning Gibbous
Oct 8
Last Quarter
Oct 15
New
Oct 21
First Quarter
Oct 29
Full

Hourly Weather History & Observations

Time (CDT) Temp. Dew Point Humidity Pressure Visibility Wind Dir Wind Speed Gust Speed Precip Events Conditions
12:53 AM 62.1 °F 48.9 °F 62% 29.99 in 10.0 mi South 6.9 mph - N/A   Clear
1:53 AM 62.1 °F 50.0 °F 65% 30.01 in 10.0 mi South 8.1 mph - N/A   Clear
2:53 AM 63.0 °F 50.0 °F 63% 30.01 in 10.0 mi SSW 9.2 mph - N/A   Clear
3:53 AM 62.1 °F 50.0 °F 65% 30.00 in 10.0 mi SSW 10.4 mph - N/A   Clear
4:53 AM 61.0 °F 51.1 °F 70% 30.01 in 10.0 mi SSW 12.7 mph - N/A   Clear
5:53 AM 59.0 °F 51.1 °F 75% 30.05 in 10.0 mi SW 9.2 mph - N/A   Clear
6:53 AM 60.1 °F 52.0 °F 75% 30.09 in 10.0 mi WSW 5.8 mph - N/A   Clear
7:53 AM 60.1 °F 48.0 °F 64% 30.11 in 10.0 mi NNW 10.4 mph - N/A   Partly Cloudy
8:53 AM 60.1 °F 46.0 °F 60% 30.12 in 10.0 mi NW 6.9 mph - N/A   Scattered Clouds
9:53 AM 59.0 °F 44.1 °F 58% 30.17 in 10.0 mi NNW 11.5 mph 19.6 mph N/A   Scattered Clouds
10:53 AM 60.1 °F 44.1 °F 55% 30.19 in 10.0 mi North 13.8 mph - N/A   Clear
11:53 AM 59.0 °F 44.1 °F 58% 30.20 in 10.0 mi NNW 12.7 mph - N/A   Mostly Cloudy
12:53 PM 59.0 °F 45.0 °F 60% 30.21 in 10.0 mi NW 11.5 mph - N/A   Mostly Cloudy
1:53 PM 61.0 °F 44.1 °F 54% 30.21 in 10.0 mi North 13.8 mph - N/A   Mostly Cloudy
2:53 PM 57.0 °F 41.0 °F 55% 30.21 in 10.0 mi North 9.2 mph - N/A   Overcast
3:53 PM 54.0 °F 42.1 °F 64% 30.23 in 10.0 mi North 13.8 mph - N/A   Overcast
4:53 PM 50.0 °F 39.0 °F 66% 30.25 in 10.0 mi North 11.5 mph - N/A   Overcast
5:53 PM 50.0 °F 37.9 °F 63% 30.25 in 10.0 mi NNE 10.4 mph - N/A   Overcast
6:53 PM 50.0 °F 37.9 °F 63% 30.24 in 10.0 mi North 8.1 mph - N/A   Overcast
8:14 PM 48.2 °F 42.8 °F 82% 30.24 in 8.0 mi North 4.6 mph - 0.02 in Rain , Thunderstorm Light Rain
8:29 PM 48.2 °F 42.8 °F 82% 30.24 in 10.0 mi North 3.5 mph - 0.03 in   Overcast
8:53 PM 48.9 °F 44.1 °F 83% 30.24 in 10.0 mi North 4.6 mph - 0.03 in Rain Light Rain
9:53 PM 48.9 °F 44.1 °F 83% 30.24 in 10.0 mi North 5.8 mph - 0.00 in   Overcast
11:53 PM 50.0 °F 45.0 °F 83% 30.25 in 10.0 mi North 5.8 mph - N/A   Overcast